This is the latest recevied weather packets stored in our database for station/object IU2PLZ-12. If no packets are shown the sender has not sent any weather packets the latest 10 day(s).
| Time | Temp. | Humidity | Pressure | Rain* | Wind** | Luminosity | Snow |
|---|---|---|---|---|---|---|---|
| 1777934878 | 16.67° C | 40% | 997.5 hPa | - | - | - | - |
| 1777933978 | 17.78° C | 40% | 997.6 hPa | - | - | - | - |
| 1777933077 | 17.78° C | 40% | 997.8 hPa | - | - | - | - |
| 1777932177 | 17.22° C | 40% | 997.7 hPa | - | - | - | - |
| 1777931277 | 17.78° C | 38% | 997.9 hPa | - | - | - | - |
| 1777930377 | 18.33° C | 37% | 998.1 hPa | - | - | - | - |
| 1777929477 | 18.33° C | 37% | 998.2 hPa | - | - | - | - |
| 1777928577 | 17.78° C | 37% | 998.2 hPa | - | - | - | - |
| 1777927676 | 17.78° C | 38% | 998.2 hPa | - | - | - | - |
| 1777926776 | 18.33° C | 38% | 998.3 hPa | - | - | - | - |
| 1777925876 | 18.89° C | 38% | 998.3 hPa | - | - | - | - |
| 1777924976 | 18.89° C | 39% | 998.2 hPa | - | - | - | - |
| 1777924133 | 18.89° C | 37% | 998.2 hPa | - | - | - | - |
| 1777924075 | 18.89° C | 37% | 998.2 hPa | - | - | - | - |
| 1777923177 | 19.44° C | 36% | 997.8 hPa | - | - | - | - |
| 1777922275 | 19.44° C | 35% | 997.8 hPa | - | - | - | - |
| 1777921375 | 20° C | 35% | 997.6 hPa | - | - | - | - |
| 1777920475 | 20° C | 34% | 997.5 hPa | - | - | - | - |
| 1777919574 | 20.56° C | 34% | 997.5 hPa | - | - | - | - |
| 1777918674 | 21.11° C | 34% | 997.4 hPa | - | - | - | - |
| 1777917774 | 21.67° C | 34% | 997.4 hPa | - | - | - | - |
| 1777916874 | 22.78° C | 32% | 997.5 hPa | - | - | - | - |
| 1777915974 | 22.78° C | 31% | 997.4 hPa | - | - | - | - |
| 1777915074 | 23.33° C | 31% | 997.4 hPa | - | - | - | - |
| 1777914173 | 23.33° C | 30% | 997.5 hPa | - | - | - | - |
* Rain since midnight (hover to see other rain measurements)
** Current wind speed in m/s (hover to see current wind gust speed)